This is the latest recevied weather packets stored in our database for station/object OK3MS-5. If no packets are shown the sender has not sent any weather packets the latest 10 day(s).
| Time | Temp. | Humidity | Pressure | Rain* | Wind** | Luminosity | Snow |
|---|---|---|---|---|---|---|---|
| 1777974003 | 23.33° C | 40% | 1004.3 hPa | 0 mm | - | 690 W/m² | - |
| 1777973708 | 23.33° C | 38% | 1004.4 hPa | 0 mm | - | 659 W/m² | - |
| 1777973404 | 22.78° C | 39% | 1004.4 hPa | 0 mm | - | 701 W/m² | - |
| 1777973104 | 23.33° C | 39% | 1004.4 hPa | 0 mm | - | 688 W/m² | - |
| 1777972804 | 23.33° C | 39% | 1004.4 hPa | 0 mm | - | 664 W/m² | - |
| 1777972504 | 22.78° C | 39% | 1004.5 hPa | 0 mm | - | 658 W/m² | - |
| 1777972204 | 22.78° C | 41% | 1004.6 hPa | 0 mm | - | 667 W/m² | - |
| 1777971907 | 22.22° C | 39% | 1004.7 hPa | 0 mm | - | 659 W/m² | - |
| 1777971605 | 22.22° C | 41% | 1004.8 hPa | 0 mm | - | 650 W/m² | - |
| 1777971303 | 22.22° C | 40% | 1004.8 hPa | 0 mm | - | 646 W/m² | - |
| 1777971004 | 22.22° C | 39% | 1004.8 hPa | 0 mm | - | 638 W/m² | - |
| 1777970703 | 22.22° C | 40% | 1004.8 hPa | 0 mm | - | 626 W/m² | - |
| 1777970404 | 22.22° C | 42% | 1005 hPa | 0 mm | - | 616 W/m² | - |
| 1777970106 | 22.22° C | 41% | 1005 hPa | 0 mm | - | 607 W/m² | - |
| 1777969803 | 21.67° C | 43% | 1005.1 hPa | 0 mm | - | 596 W/m² | - |
| 1777969506 | 21.11° C | 43% | 1005.3 hPa | 0 mm | - | 583 W/m² | - |
| 1777969202 | 22.22° C | 44% | 1005.2 hPa | 0 mm | - | 567 W/m² | - |
| 1777968904 | 21.67° C | 42% | 1005.4 hPa | 0 mm | - | 553 W/m² | - |
| 1777968604 | 20.56° C | 43% | 1005.4 hPa | 0 mm | - | 454 W/m² | - |
| 1777968304 | 20.56° C | 43% | 1005.6 hPa | 0 mm | - | 534 W/m² | - |
| 1777968003 | 20.56° C | 44% | 1005.6 hPa | 0 mm | - | 523 W/m² | - |
| 1777967703 | 20° C | 45% | 1005.7 hPa | 0 mm | - | 506 W/m² | - |
| 1777967402 | 19.44° C | 47% | 1005.9 hPa | 0 mm | - | 490 W/m² | - |
| 1777967103 | 18.89° C | 48% | 1006.1 hPa | 0 mm | - | 477 W/m² | - |
| 1777966802 | 18.33° C | 48% | 1006.3 hPa | 0 mm | - | 462 W/m² | - |
* Rain latest hour (hover to see other rain measurements)
** Current wind speed in m/s (hover to see current wind gust speed)